User: anonymous   Login
Location: Unspecified
(0.0000°N, 0.0000°E)
Time: 01:10:40
(UTC+00:00)
Language:

STARLINK-11096 [DTC] - Orbit

View from above orbital plane
View from above orbital plane
View from above satellite
View from above satellite

Ground track
Ground track

The orbit is defined by the following mean orbital elements,

1 59719U          26144.87860580 +.00000000 +00000-0 -28211-5 0 00003
2 59719  53.1600 311.0419 0000735  96.4672 263.6429 15.69709175    08
Epoch (UTC): 24 May 2026 21:05:11
Eccentricity: 0.0000735
inclination: 53.1600°
perigee height: 359 km
apogee height: 360 km
right ascension of ascending node: 311.0419°
argument of perigee: 96.4672°
revolutions per day: 15.69709175
mean anomaly at epoch: 263.6429°

The dashed part of the orbit path shows where the satellite is in the earth's shadow,  

DLR